This is the latest recevied weather packets stored in our database for station/object KQ4OSL. If no packets are shown the sender has not sent any weather packets the latest 10 day(s).
| Time | Temp. | Humidity | Pressure | Rain* | Wind** | Luminosity | Snow |
|---|---|---|---|---|---|---|---|
| 1777775581 | 10° C | 71% | 1018.2 hPa | 0 mm | - | 0 W/m² | - |
| 1777775277 | 10.56° C | 71% | 1018.4 hPa | 0 mm | - | 0 W/m² | - |
| 1777774977 | 10.56° C | 69% | 1018.1 hPa | 0 mm | - | 0 W/m² | - |
| 1777774674 | 10.56° C | 68% | 1017.9 hPa | 0 mm | - | 0 W/m² | - |
| 1777774369 | 10.56° C | 70% | 1017.9 hPa | 0 mm | - | 0 W/m² | - |
| 1777774068 | 10° C | 69% | 1017.9 hPa | 0 mm | - | 0 W/m² | - |
| 1777773765 | 10.56° C | 70% | 1017.8 hPa | 0 mm | - | 0 W/m² | - |
| 1777773461 | 10.56° C | 68% | 1017.7 hPa | 0 mm | - | 0 W/m² | - |
| 1777773158 | 10.56° C | 67% | 1017.7 hPa | 0 mm | - | 0 W/m² | - |
| 1777772854 | 10.56° C | 66% | 1017.6 hPa | 0 mm | - | 0 W/m² | - |
| 1777772552 | 10.56° C | 68% | 1017.5 hPa | 0 mm | - | 0 W/m² | - |
| 1777772249 | 10.56° C | 69% | 1017.4 hPa | 0 mm | - | 0 W/m² | - |
| 1777771947 | 10.56° C | 68% | 1017.4 hPa | 0 mm | - | 0 W/m² | - |
| 1777771644 | 10.56° C | 66% | 1017.2 hPa | 0 mm | - | 0 W/m² | - |
| 1777771341 | 10.56° C | 67% | 1017.2 hPa | 0 mm | - | 0 W/m² | - |
| 1777771037 | 11.11° C | 67% | 1017.3 hPa | 0 mm | - | 0 W/m² | - |
| 1777770735 | 11.11° C | 66% | 1017.2 hPa | 0 mm | - | 0 W/m² | - |
| 1777770430 | 11.67° C | 66% | 1017.2 hPa | 0 mm | - | 0 W/m² | - |
| 1777770128 | 11.67° C | 62% | 1017.2 hPa | 0 mm | - | 0 W/m² | - |
| 1777769825 | 11.67° C | 63% | 1017.1 hPa | 0 mm | - | 0 W/m² | - |
| 1777769522 | 12.22° C | 63% | 1017 hPa | 0 mm | - | 0 W/m² | - |
| 1777769218 | 12.22° C | 60% | 1016.9 hPa | 0 mm | - | 0 W/m² | - |
| 1777768917 | 12.78° C | 59% | 1016.8 hPa | 0 mm | - | 0 W/m² | - |
| 1777768614 | 13.33° C | 57% | 1016.8 hPa | 0 mm | - | 0 W/m² | - |
| 1777768310 | 13.33° C | 55% | 1016.8 hPa | 0 mm | - | 1 W/m² | - |
* Rain latest hour (hover to see other rain measurements)
** Current wind speed in m/s (hover to see current wind gust speed)